DW7371 Weather Reports


time (UTC)temp
C
wind
direction
speed
KPH
gust
KPH
rain 1hr
cm
rain 24hr
cm
rain mn
cm
humidity
%
barometer
mb
20260503223346 24 22 3.2 8.0 0.00 0.00 0.00 40 1009.4
20260503220108 23 28 3.2 6.4 0.00 0.00 0.00 44 1009.7
20260503215112 23 26 3.2 6.4 0.00 0.00 0.00 45 1009.8
20260503214058 22 55 3.2 6.4 0.00 0.00 0.00 45 1010.0
20260503213102 22 355 3.2 9.7 0.00 0.00 0.00 46 1010.1
20260503212036 22 13 4.8 11.3 0.00 0.00 0.00 46 1010.2
20260503211058 22 34 4.8 12.9 0.00 0.00 0.00 47 1010.2
20260503210026 22 57 4.8 12.9 0.00 0.00 0.00 47 1010.3
20260503205043 22 44 3.2 8.0 0.00 0.00 0.00 43 1010.4
20260503204046 22 346 4.8 12.9 0.00 0.00 0.00 47 1010.6
20260503201921 21 5 8.0 16.1 0.00 0.00 0.00 50 1011.0
20260503200921 21 48 6.4 14.5 0.00 0.00 0.00 52 1011.0
20260503194843 22 342 3.2 8.0 0.00 0.00 0.00 53 1011.2
20260503193841 22 15 3.2 8.0 0.00 0.00 0.00 49 1011.2
20260503192826 21 36 3.2 11.3 0.00 0.00 0.00 53 1011.3
20260503190734 21 355 4.8 6.4 0.00 0.00 0.00 58 1011.5
20260503185724 21 17 3.2 6.4 0.00 0.00 0.00 52 1011.5
20260503184651 20 332 1.6 6.4 0.00 0.00 0.00 57 1011.6
20260503183624 21 51 1.6 6.4 0.00 0.00 0.00 53 1011.8
20260503182549 20 355 3.2 8.0 0.00 0.00 0.00 55 1011.9
20260503181610 20 338 3.2 8.0 0.00 0.00 0.00 54 1012.0
20260503180600 20 317 0.0 8.0 0.00 0.00 0.00 57 1012.1
20260503175608 19 323 3.2 8.0 0.00 0.00 0.00 58 1012.1
20260503174602 19 34 1.6 8.0 0.00 0.00 0.00 59 1012.1
20260503172400 19 46 3.2 11.3 0.00 0.00 0.00 57 1012.3
20260503171342 19 311 3.2 8.0 0.00 0.00 0.00 60 1012.3
20260503170348 18 30 3.2 8.0 0.00 0.00 0.00 58 1012.4
20260503160200 17 316 1.6 4.8 0.00 0.00 0.00 66 1012.9
20260503130526 12 27 0.0 0.0 0.00 0.00 0.00 83 1012.4
20260503110228 16 99 4.8 14.5 0.00 0.00 0.00 68 1012.5
20260503081603 16 117 0.0 0.0 0.00 0.00 0.00 57 1012.2
20260503080623 15 117 0.0 0.0 0.00 0.00 0.00 59 1012.3
20260503072326 16 112 0.0 0.0 0.00 0.00 0.00 60 1012.1
20260503071337 17 112 0.0 0.0 0.00 0.00 0.00 55 1012.1
20260503060201 15 133 0.0 0.0 0.00 0.00 0.00 68 1012.0
20260503054114 16 244 0.0 0.0 0.00 0.00 0.00 61 1012.0
20260503053049 17 227 0.0 0.0 0.00 0.00 0.00 60 1012.0
20260503050916 17 236 0.0 0.0 0.00 0.00 0.00 61 1012.0
20260503045916 17 236 0.0 0.0 0.00 0.00 0.00 60 1012.0
20260503044859 17 194 0.0 1.6 0.00 0.00 0.00 59 1011.9
20260503043920 17 194 0.0 0.0 0.00 0.00 0.00 58 1011.9
20260503042900 16 136 0.0 1.6 0.00 0.00 0.00 57 1011.8
20260503041917 17 136 0.0 1.6 0.00 0.00 0.00 55 1011.8
20260503040922 17 118 0.0 1.6 0.00 0.00 0.00 55 1011.7
20260503035937 18 124 0.0 3.2 0.00 0.00 0.00 54 1011.5
20260503034926 18 134 0.0 1.6 0.00 0.00 0.00 53 1011.4
20260503033911 18 201 0.0 3.2 0.00 0.00 0.00 54 1011.4
20260503032928 18 107 0.0 0.0 0.00 0.00 0.00 50 1011.2
20260503031921 19 38 0.0 0.0 0.00 0.00 0.00 48 1011.1
20260503030920 19 38 0.0 3.2 0.00 0.00 0.00 48 1011.1
20260503025932 20 34 0.0 3.2 0.00 0.00 0.00 45 1011.1
20260503024858 20 41 0.0 0.0 0.00 0.00 0.00 48 1011.1
20260503023920 20 57 0.0 0.0 0.00 0.00 0.00 48 1011.1
20260503022916 21 17 0.0 0.0 0.00 0.00 0.00 46 1011.1
20260503020731 21 46 0.0 3.2 0.00 0.00 0.00 47 1011.2
20260503015709 21 79 1.6 4.8 0.00 0.00 0.00 46 1011.2
20260503014640 21 40 3.2 9.7 0.00 0.00 0.00 48 1011.3
20260503013641 21 17 3.2 9.7 0.00 0.00 0.00 45 1011.3
20260503012654 22 13 3.2 9.7 0.00 0.00 0.00 43 1011.4
20260503011630 22 349 3.2 9.7 0.00 0.00 0.00 43 1011.4
20260503010604 22 51 3.2 9.7 0.00 0.00 0.00 42 1011.6
20260503004437 22 28 3.2 9.7 0.00 0.00 0.00 42 1011.7
20260503002341 22 14 3.2 9.7 0.00 0.00 0.00 42 1011.8
20260503001354 22 19 3.2 12.9 0.00 0.00 0.00 44 1011.9
20260503000338 22 38 4.8 12.9 0.00 0.00 0.00 43 1011.9
20260502234217 23 347 3.2 11.3 0.00 0.00 0.00 41 1012.1
20260502233150 22 325 3.2 12.9 0.00 0.00 0.00 42 1012.2
20260502232126 22 309 4.8 12.9 0.00 0.00 0.00 44 1012.4
20260502231100 22 9 6.4 22.5 0.00 0.00 0.00 42 1012.4
20260502230031 22 11 3.2 22.5 0.00 0.00 0.00 45 1012.6